www.pogodaiklimat.ru
ПОГОДА в Оренсе
Время
(UTC), дата
16 11.10
17 11.10
18 11.10
19 11.10
20 11.10
21 11.10
22 11.10
23 11.10
00 12.10
01 12.10
02 12.10
03 12.10
04 12.10
05 12.10
06 12.10
07 12.10
08 12.10
09 12.10
10 12.10
11 12.10
12 12.10
13 12.10
14 12.10
15 12.10
16 12.10
17 12.10
18 12.10
19 12.10
20 12.10
21 12.10
22 12.10
23 12.10
00 13.10
01 13.10
02 13.10
03 13.10
04 13.10
05 13.10
06 13.10
07 13.10
08 13.10
09 13.10
10 13.10
11 13.10
12 13.10
13 13.10
14 13.10
15 13.10
16 13.10
17 13.10
18 13.10
19 13.10
20 13.10
21 13.10
22 13.10
23 13.10
00 14.10
01 14.10
02 14.10
03 14.10
04 14.10
05 14.10
06 14.10
07 14.10
08 14.10
09 14.10
10 14.10
11 14.10
12 14.10
13 14.10
14 14.10
15 14.10
16 14.10
17 14.10
18 14.10
19 14.10
20 14.10
21 14.10
22 14.10
23 14.10
00 15.10
01 15.10
02 15.10
03 15.10
04 15.10
05 15.10
06 15.10
07 15.10
08 15.10
09 15.10
10 15.10
11 15.10
12 15.10
13 15.10
14 15.10
15 15.10
16 15.10
17 15.10
18 15.10
19 15.10
20 15.10
21 15.10
22 15.10
23 15.10
00 16.10
01 16.10
02 16.10
03 16.10
04 16.10
05 16.10
06 16.10
07 16.10
08 16.10
09 16.10
10 16.10
11 16.10
12 16.10
13 16.10
14 16.10
15 16.10
16 16.10
17 16.10
18 16.10
19 16.10
20 16.10
21 16.10
22 16.10
23 16.10
00 17.10
01 17.10
02 17.10
03 17.10
04 17.10
05 17.10
06 17.10
07 17.10
08 17.10
09 17.10
10 17.10
11 17.10
12 17.10
13 17.10
14 17.10
15 17.10
16 17.10
17 17.10
18 17.10
19 17.10
20 17.10
21 17.10
22 17.10
23 17.10
00 18.10
01 18.10
02 18.10
03 18.10
04 18.10
05 18.10
06 18.10
09 18.10
11 18.10
12 18.10
13 18.10
Ветер
(напр.,м/с)
Видим. Явления Облачность Т
(С)
Тd
(С)
f
(%)
Тe
(С)
Тes
(С)
Комфортность P
(гПа)
Po
(гПа)
Тmin
(С)
Tmax
(С)
R
(мм)
R24
(мм)
S
(см)
З 3 18 км н/о +28.9 +11.5 34 +30 +30 жарко 1012.6 996.0
З 2 20 км н/о +27.2 +11.2 37 +28 +28 жарко 1012.6 995.9
З 2 20 км н/о +24.5 +10.7 42 +26 +26 жарко 1012.6 995.8 +29.7
В 1 20 км н/о +22.4 +10.8 48 +24 +24 комфорт 1013.0 996.0
Ю 1 20 км н/о +20.1 +11.0 56 +23 +23 комфорт 1013.5 996.4
ЮЗ 1 20 км н/о +17.7 +11.0 65 +19 +19 тепло 1014.1 996.9
З 1 20 км н/о +15.9 +10.9 72 +17 +17 тепло 1014.3 996.9
ЮВ 1 20 км н/о +15.0 +10.6 75 +16 +16 тепло 1014.1 996.7
В 1 19 км н/о +13.8 +10.4 80 +15 +15 тепло 1013.9 996.4
штиль 0 20 км н/о +13.0 +10.0 82 +13 +13 тепло 1013.7 996.2
Ю 1 20 км н/о +12.7 +9.9 83 +14 +14 тепло 1013.4 995.9
СВ 1 19 км н/о +12.3 +10.0 86 +13 +13 тепло 1013.1 995.5
ЮЗ 1 19 км н/о +12.2 +9.9 86 +13 +13 тепло 1012.7 995.1
ЮЗ 1 19 км н/о +12.5 +10.2 86 +13 +13 тепло 1012.5 995.0
СВ 1 19 км н/о +12.5 +10.4 87 +12 +12 тепло 1012.0 994.5 +12.1
В 1 17 км н/о +11.5 +9.7 89 +12 +12 тепло 1012.4 994.8
СВ 1 17 км н/о +11.9 +10.3 90 +13 +13 тепло 1012.9 995.3
ЮЗ 1 18 км н/о +13.8 +11.3 85 +15 +15 тепло 1013.0 995.5
СВ 1 19 км н/о +16.8 +12.1 74 +18 +18 тепло 1012.3 995.0
С 1 19 км н/о +19.8 +13.3 66 +23 +23 комфорт 1011.2 994.1
Ю 4 20 км н/о +25.9 +13.1 45 +28 +28 жарко 1010.0 993.3
ЮЗ 5 20 км н/о +27.0 +12.2 40 +28 +28 жарко 1009.2 992.6
ЮЗ 5 20 км н/о +27.1 +12.7 41 +29 +29 жарко 1008.7 992.1
ЮЗ 4 20 км н/о +26.7 +12.7 42 +28 +28 жарко 1008.4 991.8
ЮЗ 3 20 км н/о +24.6 +13.2 49 +27 +27 жарко 1008.4 991.7
ЮЗ 3 20 км н/о +22.7 +13.2 55 +26 +26 жарко 1009.1 992.2 0.0
ЮЗ 2 20 км дымка н/о +21.0 +13.2 61 +24 +24 комфорт 1009.9 992.9 +27.5 0.0
ЮВ 2 20 км н/о +19.6 +11.6 60 +22 +22 комфорт 1010.1 993.0
ЮВ 2 20 км н/о +18.3 +11.1 63 +19 +19 тепло 1009.9 992.8
ЮВ 4 20 км н/о +18.6 +10.7 60 +19 +19 тепло 1009.9 992.8
ЮВ 1 20 км н/о +18.4 +10.7 61 +20 +20 тепло 1010.0 992.9
В 2 20 км н/о +18.6 +11.2 62 +20 +20 тепло 1009.8 992.7
ЮВ 2 20 км н/о +18.6 +10.9 61 +20 +20 тепло 1009.5 992.4
ЮВ 3 20 км н/о +18.9 +10.7 59 +20 +20 тепло 1009.2 992.1
ЮВ 2 20 км н/о +19.0 +11.3 61 +20 +20 тепло 1008.8 991.7
СВ 1 20 км н/о +18.9 +11.7 63 +21 +21 комфорт 1007.8 990.7
ЮВ 4 20 км н/о +18.9 +11.5 62 +20 +20 тепло 1007.6 990.5
Ю 2 16 км н/о +18.7 +12.4 67 +20 +20 тепло 1007.7 990.6 0.0
З 1 9000 м дождь н/о +16.5 +14.1 86 +17 +17 тепло 1008.3 991.1 +16.5 4
В 2 1100 м сильн. дождь н/о +16.1 +14.6 91 +16 +16 тепло 1009.2 992.0 7
ЮВ 1 7000 м дождь н/о +15.9 +14.3 90 +17 +17 тепло 1010.0 992.7 2
Ю 1 н/о дождь н/о +16.1 +14.8 92 +17 +17 тепло 1010.7 993.4 12
В 1 20 км в посл. час дождь н/о +17.0 +15.9 93 +18 +18 тепло 1010.8 993.6 0.6
З 1 3800 м дождь н/о +17.6 +16.1 91 +19 +19 тепло 1011.1 993.9 1
В 1 20 км слаб. морось {дождь} н/о +17.7 +16.2 91 +19 +19 тепло 1010.8 993.6 3
ЮВ 1 19 км слаб. морось н/о +18.0 +16.2 89 +20 +20 тепло 1010.1 993.0 0.0
СЗ 1 20 км в посл. час дождь н/о +18.2 +16.4 89 +20 +20 тепло 1009.8 992.7 0.2
СВ 1 7000 м дождь н/о +18.1 +16.3 89 +20 +20 тепло 1009.8 992.7 1
В 1 11 км слаб. морось н/о +17.5 +16.0 91 +19 +19 тепло 1009.3 992.2 2
ЮВ 1 7000 м дождь н/о +16.9 +15.4 91 +18 +18 тепло 1009.4 992.2 2
В 1 3400 м дождь н/о +16.4 +15.1 92 +18 +18 тепло 1009.2 992.0 +18.3 7
З 1 7000 м слаб. морось н/о +16.1 +15.0 93 +17 +17 тепло 1009.0 991.8 2
З 1 н/о слаб. морось с дождем н/о +16.0 +15.0 94 +17 +17 тепло 1009.2 992.0 3
Ю 1 20 км слаб. морось {дождь} н/о +14.9 +13.1 89 +16 +16 тепло 1009.7 992.4 7
Ю 1 2400 м морось с дождем н/о +14.0 +12.4 90 +15 +15 тепло 1009.7 992.3 0.8
С 1 2600 м сильн. дождь н/о +13.4 +12.3 93 +14 +14 тепло 1009.1 991.7 6
ЮЗ 1 3400 м дождь н/о +12.9 +11.8 93 +13 +13 тепло 1009.7 992.2 10
ЮВ 1 2600 м сильн. дождь н/о +12.7 +11.9 95 +13 +13 тепло 1009.4 991.9 2
ЮЗ 1 6000 м дождь н/о +12.6 +11.8 95 +13 +13 тепло 1008.8 991.3 2
З 1 13 км дождь н/о +12.5 +11.6 94 +12 +12 тепло 1007.8 990.4 6
З 2 20 км слаб. морось н/о +12.5 +11.4 93 +12 +12 тепло 1007.1 989.7 0.2
С 1 20 км н/о +12.4 +11.3 93 +13 +13 тепло 1006.8 989.4
Ю 1 20 км дымка н/о +12.0 +11.1 94 +13 +13 тепло 1006.7 989.2 +12.0 0.2
штиль 0 19 км в посл. час дождь н/о +11.6 +10.8 95 +11 +11 тепло 1007.1 989.6 0.0
З 1 4300 м дождь н/о +11.9 +11.3 96 +12 +12 тепло 1008.6 991.1 1
В 1 3900 м дождь н/о +12.2 +11.1 93 +12 +12 тепло 1008.9 991.4 5
ЮВ 1 20 км в посл. час дождь н/о +13.2 +11.6 90 +13 +13 тепло 1009.6 992.2 0.0
Ю 3 20 км н/о +16.0 +11.2 73 +16 +16 тепло 1009.4 992.1
ЮЗ 2 6000 м дождь н/о +12.8 +10.3 85 +12 +12 тепло 1011.4 993.9 3
ЮВ 2 20 км в посл. час дождь н/о +12.2 +10.3 88 +12 +12 тепло 1012.0 994.5 0.6
ЮЗ 2 20 км н/о +14.9 +11.3 79 +15 +15 тепло 1011.7 994.3 0.0
З 3 20 км в посл. час дождь н/о +14.7 +9.1 69 +14 +14 тепло 1012.6 995.2 0.8
СЗ 2 19 км слаб. дождь н/о +14.8 +8.9 68 +15 +15 тепло 1013.5 996.1 0.0
ЮЗ 2 20 км в посл. час дождь н/о +14.2 +7.9 66 +14 +14 тепло 1014.9 997.4 0.0
Ю 3 20 км дымка н/о +12.6 +8.1 74 +11 +11 тепло 1015.9 998.3 +16.0 0.0
ЮЗ 1 20 км н/о +11.8 +8.5 80 +12 +12 тепло 1017.1 999.4
В 1 20 км н/о +11.0 +8.4 84 +12 +12 тепло 1017.4 999.7
СЗ 1 14 км н/о +10.1 +8.4 89 +11 +11 тепло 1018.3 1000.5 0.0
Ю 1 7000 м в посл. час дождь н/о +9.7 +8.5 92 +9 +9 тепло 1018.6 1000.8 0.2
Ю 1 14 км в посл. час дождь н/о +9.6 +8.7 94 +10 +10 тепло 1019.0 1001.2 0.2
ЮЗ 1 13 км дымка н/о +9.2 +8.3 94 +9 +9 тепло 1019.5 1001.6 0.4
штиль 0 10 км н/о +8.7 +7.9 95 +8 +8 тепло 1019.6 1001.7
З 1 15 км н/о +8.1 +7.3 95 +7 +7 тепло 1019.5 1001.6
ЮЗ 1 11 км н/о +8.3 +7.7 96 +8 +8 тепло 1019.4 1001.5
Ю 1 15 км в посл. час морось н/о +8.1 +7.5 96 +8 +8 тепло 1019.7 1001.8 0.0
Ю 1 1000 м н/о +7.5 +6.9 96 +7 +7 тепло 1020.0 1002.0
Ю 1 600 м дымка н/о +7.8 +7.4 97 +8 +8 тепло 1020.0 1002.0 +7.5 0.0
З 1 6000 м н/о +7.7 +7.4 98 +8 +8 тепло 1020.1 1002.1
ЮЗ 1 16 км н/о +8.2 +7.9 98 +8 +8 тепло 1020.6 1002.6
З 1 8000 м слаб. морось н/о +8.9 +8.4 97 +9 +9 тепло 1020.8 1002.9 0.0
З 1 16 км в посл. час морось н/о +10.7 +9.9 95 +10 +10 тепло 1020.1 1002.3 0.0
З 1 16 км н/о +12.5 +10.4 87 +12 +12 тепло 1019.7 1002.0
Ю 2 20 км дымка н/о +14.2 +11.2 82 +14 +14 тепло 1019.3 1001.8 0.0
Ю 2 20 км н/о +16.3 +11.4 73 +16 +16 тепло 1018.6 1001.2
Ю 1 20 км в посл. час морось н/о +16.2 +10.5 69 +17 +17 тепло 1018.1 1000.7 0.2
ЮЗ 4 20 км слаб. морось н/о +16.2 +9.4 64 +15 +15 тепло 1018.2 1000.8 0.2
ЮВ 2 20 км н/о +15.9 +10.0 68 +16 +16 тепло 1017.4 1000.0
ЮЗ 1 20 км н/о +16.0 +10.7 71 +17 +17 тепло 1017.5 1000.1
Ю 2 20 км дымка н/о +15.7 +10.0 69 +16 +16 тепло 1017.4 1000.0 +16.7
ЮВ 1 20 км н/о +15.4 +10.0 70 +16 +16 тепло 1017.6 1000.2
ЮВ 1 20 км н/о +15.0 +10.4 74 +16 +16 тепло 1017.7 1000.2
ЮВ 2 20 км н/о +15.1 +10.5 74 +15 +15 тепло 1017.6 1000.1
ЮВ 2 20 км н/о +15.8 +9.7 67 +16 +16 тепло 1017.6 1000.2
Ю 1 20 км в посл. час морось н/о +15.3 +10.1 71 +16 +16 тепло 1017.2 999.8 0.0
Ю 1 20 км дымка н/о +15.5 +10.3 71 +16 +16 тепло 1016.8 999.4 0.0
ЮВ 2 20 км н/о +15.9 +10.2 69 +16 +16 тепло 1016.5 999.1
Ю 2 20 км н/о +15.6 +10.6 72 +16 +16 тепло 1016.0 998.6
В 1 18 км слаб. морось н/о +15.6 +10.8 73 +16 +16 тепло 1016.0 998.6 0.0
ЮВ 1 20 км в посл. час дождь н/о +14.7 +11.8 83 +15 +15 тепло 1015.7 998.3 0.0
В 1 20 км н/о +14.9 +11.5 80 +16 +16 тепло 1015.3 997.9
ЮЗ 1 20 км в посл. час дождь н/о +14.7 +12.2 85 +15 +15 тепло 1015.4 998.0 +14.7 0.0
Ю 3 20 км н/о +16.2 +10.9 71 +16 +16 тепло 1015.0 997.6
Ю 4 20 км н/о +16.8 +11.1 69 +16 +16 тепло 1015.2 997.9
Ю 3 19 км слаб. морось н/о +16.8 +11.5 71 +17 +17 тепло 1015.1 997.8 0.0
ЮВ 3 20 км в посл. час морось н/о +17.3 +11.1 67 +17 +17 тепло 1014.9 997.6 0.0
Ю 3 20 км в посл. час морось н/о +17.5 +11.7 69 +18 +18 тепло 1014.8 997.5 0.0
Ю 3 20 км дымка н/о +18.5 +11.8 65 +19 +19 тепло 1013.6 996.4 0.0
Ю 4 18 км слаб. дождь н/о +18.7 +12.4 67 +19 +19 тепло 1013.2 996.0 0.0
ЮВ 2 15 км слаб. морось с дождем н/о +17.7 +13.2 75 +18 +18 тепло 1013.0 995.8 0.4
ЮВ 2 19 км слаб. морось {дождь} н/о +17.3 +13.4 78 +18 +18 тепло 1013.2 996.0 0.8
ЮВ 3 4000 м дождь н/о +16.9 +13.4 80 +17 +17 тепло 1013.4 996.1 0.4
ЮВ 3 20 км в посл. час дождь н/о +15.9 +13.0 83 +15 +15 тепло 1012.6 995.3 2
ЮВ 3 1600 м сильн. дождь н/о +15.6 +13.3 86 +15 +15 тепло 1012.7 995.4 +19.2 5
ЮВ 2 10 км дождь н/о +15.2 +13.4 89 +15 +15 тепло 1012.7 995.3 1
ЮВ 2 4400 м дождь н/о +15.3 +13.3 88 +15 +15 тепло 1013.1 995.7 2
ЮВ 2 10 км дождь н/о +15.5 +13.5 88 +15 +15 тепло 1012.9 995.6 5
Ю 2 10 км дождь н/о +15.4 +13.8 90 +15 +15 тепло 1013.4 996.0 1
Ю 2 2000 м сильн. дождь н/о +15.0 +13.7 92 +15 +15 тепло 1013.3 995.9 3
З 2 16 км слаб. морось {дождь} н/о +14.8 +13.7 93 +15 +15 тепло 1012.8 995.4 6
В 1 н/о слаб. морось с дождем н/о +14.9 +13.8 93 +16 +16 тепло 1013.2 995.8 0.4
Ю 1 13 км слаб. морось н/о +14.7 +13.9 95 +16 +16 тепло 1013.1 995.7 0.2
ЮЗ 1 3900 м н/о +14.1 +13.3 95 +15 +15 тепло 1012.9 995.5 0.8
СЗ 1 6000 м н/о +13.8 +13.2 96 +15 +15 тепло 1012.8 995.4
СЗ 1 4600 м н/о +13.4 +12.8 96 +14 +14 тепло 1013.3 995.8
ЮЗ 2 20 км дымка н/о +14.7 +13.7 94 +15 +15 тепло 1013.7 996.3 +13.3
ЮЗ 1 20 км н/о +15.3 +14.0 92 +16 +16 тепло 1014.5 997.1
ЮВ 2 20 км н/о +15.0 +12.7 86 +15 +15 тепло 1015.8 998.4 0.0
ЮВ 2 20 км н/о +16.5 +13.2 81 +17 +17 тепло 1015.9 998.6 0.0
З 2 20 км н/о +18.6 +12.6 68 +20 +20 тепло 1015.8 998.6
ЮЗ 2 20 км н/о +20.0 +12.5 62 +22 +22 комфорт 1015.3 998.2
ЮЗ 2 20 км дымка н/о +19.8 +12.1 61 +22 +22 комфорт 1015.1 998.0
С 1 20 км н/о +20.7 +12.4 59 +24 +24 комфорт 1014.5 997.4
З 3 20 км н/о +20.4 +13.4 64 +23 +23 комфорт 1014.4 997.3
З 3 20 км н/о +18.5 +13.4 72 +19 +19 тепло 1014.5 997.3
З 2 20 км н/о +18.1 +13.0 72 +19 +19 тепло 1014.5 997.3
З 2 20 км н/о +17.0 +12.3 74 +17 +17 тепло 1014.8 997.5
З 2 20 км дымка н/о +16.1 +11.7 75 +16 +16 тепло 1015.2 997.8 +21.1
З 2 20 км н/о +15.5 +11.5 77 +16 +16 тепло 1015.9 998.5
ЮЗ 1 20 км н/о +15.1 +11.3 78 +16 +16 тепло 1016.5 999.1
ЮВ 1 20 км н/о +14.6 +11.4 81 +15 +15 тепло 1016.9 999.4
ЮВ 1 20 км н/о +14.4 +11.9 85 +15 +15 тепло 1017.0 999.5
ЮВ 1 20 км н/о +14.3 +11.4 83 +15 +15 тепло 1016.9 999.4
ЮВ 1 20 км н/о +13.6 +11.1 85 +14 +14 тепло 1016.8 999.3
Ю 1 20 км н/о +13.3 +11.0 86 +14 +14 тепло 1017.1 999.5
ЮВ 1 20 км н/о +13.4 +10.9 85 +14 +14 тепло 1017.1 999.5
Ю 1 20 км в посл. час морось н/о +13.2 +11.1 87 +14 +14 тепло 1017.1 999.5 0.0
З 1 20 км н/о +13.0 +10.9 87 +14 +14 тепло 1016.9 999.3
ЮВ 1 20 км н/о +12.8 +11.0 89 +14 +14 тепло 1016.9 999.3
З 1 20 км дымка н/о +12.8 +10.9 88 +14 +14 тепло 1016.7 999.1 +12.8
Ю 1 20 км н/о +14.0 +11.5 85 +15 +15 тепло 1017.3 999.8
ЮЗ 2 20 км н/о +16.8 +10.6 67 +17 +17 тепло 1016.4 999.1
З 2 20 км н/о +17.1 +11.1 68 +18 +18 тепло 1015.7 998.4
Ю 2 20 км н/о +18.6 +11.7 64 +20 +20 тепло 1014.7 997.5
Местоположение метеостанции Оренсе (Испания): широта 42.33 долгота -7.87 высота над уровнем моря 128 м.
В архиве по умолчанию представлена погода в Оренсе за последнюю неделю. Архивные данные за месяц целиком и за предыдущие месяцы, начиная с января 2011 года, Вы можете получить, выбрав интересующий диапазон дат из раскрывающегося списка и нажав кнопку "Найти!".
*Определитесь, кто Вы:
Внимание! Время в таблицах - всемирное. Для получения местного времени необходимо прибавить поправку, которая равна 1 ч.
Смотрите также архив погоды в соседних городах и на ближайших метеорологических станциях:
Партнеры нашего сайта:      
Пояснения к столбцам:
  • Ветер - указаны скорость ветра в м/с - средняя за 10 мин, порывы в срок и между сроками (в фигурных скобках) и направление, откуда дует ветер: С - северный,
  • СВ - северо-восточный, В - восточный, ЮВ - юго-восточный, Ю - южный, ЮЗ - юго-западный, З - западный, СЗ - северо-западный.
  • Видимость - горизонтальная дальность видимости в метрах или километрах. При видимости от 1 до 10 км при отсутствии осадков обычно наблюдается дымка, при ухудшении видимости до 1 км и менее - туман. В сухую погоду видимость может ухудшаться дымом, пылью или мглою.
  • Явления - указаны атмосферные явления, наблюдавшиеся в срок или в последний час перед сроком; фигурными скобками обозначены явления, наблюдавшиеся между сроками (за 1-3 часа до срока); квадратными скобками обозначены град или гололедные отложения с указанием их диаметра в мм.
  • Облачность - указаны через наклонную черту общая и нижняя облачность в баллах и высота нижней границы облаков в метрах; квадратными скобками обозначены формы облаков: Ci - перистые, Cs - перисто-слоистые, Cc - перисто-кучевые, Ac - высококучевые, As - высокослоистые, Sc - слоисто-кучевые, Ns - слоисто-дождевые, Cu - кучевые, Cb - кучево-дождевые. Подробнее классификацию облаков см. в Атласе облаков (PDF).
  • T - Температура воздуха - температура, измеренная на высоте 2 м над землей.
  • Td - Температура точки росы - температура, при понижении до которой содержащийся в воздухе водяной пар достигнет насыщения.
  • f - Относительная влажность воздуха - влажноcть воздуха, измеренная на высоте 2 м над землей.
  • Te - Эффективная температура - температура, которую ощущает одетый по сезону человек в тени. Характеристика душности погоды. При расчете учитывается влияние влажности воздуха и скорости ветра на теплоощущения человека.
  • Tes - Эффективная температура на солнце - температура, которую ощущает человек, с поправкой на солнечный нагрев. Характеристика знойности погоды. Зависит от высоты солнца над горизонтом, облачности и скорости ветра. Ночью, в пасмурную погоду, а также при ветре 12 м/с и более поправка равна нулю.
  • P - Атмосферное давление - приведенное к уровню моря атмосферное давление.
  • Po - Атмосферное давление - измеренное на уровне метеостанции атмосферное давление.
  • Tmin - Минимальная температура - минимум температуры воздуха на высоте 2 м над землей.
  • Tmax - Максимальная температура - максимум температуры воздуха на высоте 2 м над землей.
  • R - Количество осадков - Количество выпавших осадков за период времени, мм. При наведении курсора мыши на число - период времени, за который выпало указанное количество осадков.
  • R24 - Количество осадков - Количество выпавших осадков за 24 часа, мм.
  • S - Снежный покров - Высота снежного покрова, см. При наведении курсора мыши на число - состояние снежного покрова и степень покрытия местности в баллах.